Location: Carnières
(50.1682°N, 3.3474°E)
Time: 21:36:44
(UTC+00:00)

SL-16 R/B - Pass Details

Date: 05 August 2024
Orbit: 842 x 845 km, 71.0° (Epoch: 10 September)

Event Time Altitude Azimuth Distance (km) Brightness Sun altitude
Exits shadow 02:08:04 22° 243° (WSW) 1,751 3.4 -16.6°
Maximum altitude 02:11:25 47° 307° (NW) 1,104 2.8 -16.3°
Drops below altitude 10° 02:16:55 10° 22° (NNE) 2,476 5.9 -15.8°
Sets 02:19:28 0° 28° (NNE) 3,415 7.1 -15.6°
